Location: ????????
(55.8351°N, 38.7040°E)
Time: 02:56:43
(UTC+00:00)

Cosmos 2333 Rocket - Visible Passes

Search period start: 25 July 2024 00:00
Search period end: 04 August 2024 00:00
Orbit: 838 x 864 km, 70.8° (Epoch: 24 July)

Date Brightness Start Highest point End Pass type
(mag) Time Alt. Az. Time Alt. Az. Time Alt. Az.
29 Jul 3.6 00:22:11 10° S 00:27:17 34° ESE 00:32:25 10° NE visible
30 Jul 3.6 00:09:54 10° S 00:14:59 34° ESE 00:20:08 10° NE visible
30 Jul 3.5 23:57:36 10° S 00:02:42 34° ESE 00:07:50 10° NE visible
31 Jul 3.5 23:45:19 10° S 23:50:24 34° ESE 23:55:33 10° NE visible
01 Aug 3.5 23:33:01 10° S 23:38:07 34° ESE 23:43:15 10° NE visible
02 Aug 3.4 23:21:00 11° S 23:25:50 34° ESE 23:30:59 10° NE visible
03 Aug 3.4 23:09:09 13° SSE 23:13:33 34° ESE 23:18:41 10° NE visible
